Regional Weather Roundup
Issued by NWS

Home | Current Version | Previous Version | Text Only | Print | Product List | Glossary Off
Versions: 1 2 3 4 5 6 7 8 9 10 11 12 13 14 15 16 17 18 19 20 21 22 23 24 25 26 27 28 29 30 31 32 33 34 35 36 37 38 39 40 41 42 43 44 45 46 47 48 49 50

000
ASUS43 KBIS 220359
RWRND

NORTH DAKOTA REGIONAL WEATHER ROUNDUP
NATIONAL WEATHER SERVICE BISMARCK ND
1100 PM CDT SUN SEP 21 2014

NOTE: "FAIR" INDICATES FEW OR NO CLOUDS BELOW 12,000 FEET WITH NO
SIGNIFICANT WEATHER AND/OR OBSTRUCTIONS TO VISIBILITY.


NDZ001>003-009>011-017-220500-
NORTHWEST NORTH DAKOTA

CITY           SKY/WX    TMP DP  RH WIND       PRES   REMARKS
WILLISTON      CLEAR     45  37  73 CALM      30.16F
MINOT          CLEAR     54  41  61 SW8       30.17S
$$

NDZ018>021-031>035-040>046-220500-
SOUTHWEST NORTH DAKOTA

CITY           SKY/WX    TMP DP  RH WIND       PRES   REMARKS
BISMARCK       CLEAR     51  44  77 E3        30.21F
GARRISON         N/A     50  44  80 CALM      30.19S
HETTINGER ARPT CLEAR     53  38  56 SE7       30.23F
$$

NDZ004>008-012>016-024-026-027-054-220500-
NORTHEAST NORTH DAKOTA

CITY           SKY/WX    TMP DP  RH WIND       PRES   REMARKS
GRAND FORKS    CLEAR     50  48  93 S8        30.18F
DEVILS LAKE    CLEAR     48  43  81 CALM      30.17F
$$

NDZ022-023-025-028>030-036>039-047>053-220500-
SOUTHEAST NORTH DAKOTA

CITY           SKY/WX    TMP DP  RH WIND       PRES   REMARKS
FARGO          CLEAR     53  49  86 SE6       30.21S
$$




USA.gov is the U.S. government's official web portal to all federal, state and local government web resources and services.